Date String (YYYY-MM-DD hh:mm:ss) UTC,Instrument flags,Ambient pressure (hPa),Sample flow (lpm),Bypass flow (lpm),Sample temperature (°C),Ambient temperature (°C),ASC tube jacket temperature (°C),LED temperature (°C),Box temperature (°C),Sample RH (%),Span deviation,Mass concentration (μg/m³),Mass concentration (μg/m³),Mass concentration (μg/m³)
DateTimeUTC,F1_M11,P_M11,Q1_M11,Q2_M11,T1_M11,T2_M11,T3_M11,T4_M11,T5_M11,U1_M11,ZSPAN_M11,X0_M11,X2_M11,X1_M11
2021-10-19 04:00:00,,0818.4,4.99,0.00,30.2,29.2,00.0,39.3,32.0,10.3,0000.0,0014.11,0003.68,0002.07
2021-10-19 04:01:00,,0818.4,5.01,0.00,30.3,29.2,00.0,39.4,32.0,10.3,0000.0,0013.42,0003.68,0002.07
2021-10-19 04:02:00,,0818.5,4.99,0.00,30.3,29.1,00.0,39.4,32.0,10.3,0000.0,0013.09,0003.62,0002.05
2021-10-19 04:03:00,,0818.5,5.00,0.00,30.3,29.2,00.0,39.4,32.0,10.3,0000.0,0013.05,0003.63,0002.05
2021-10-19 04:04:00,,0818.4,4.99,0.00,30.3,29.2,00.0,39.4,32.0,10.3,0000.0,0012.49,0003.62,0002.04
2021-10-19 04:05:00,,0818.4,5.00,0.00,30.3,29.2,00.0,39.4,32.0,10.3,0000.0,0011.67,0003.66,0002.05
2021-10-19 04:06:00,,0818.4,5.00,0.00,30.3,29.2,00.0,39.4,32.0,10.3,0000.0,0011.68,0003.67,0002.05
2021-10-19 04:07:00,,0818.4,4.98,0.00,30.3,29.2,00.0,39.4,32.0,10.2,0000.0,0011.17,0003.70,0002.05
2021-10-19 04:08:00,,0818.4,5.02,0.00,30.3,29.2,00.0,39.4,32.0,10.3,0000.0,0011.11,0003.70,0002.05
2021-10-19 04:09:00,,0818.4,4.99,0.00,30.3,29.2,00.0,39.4,32.0,10.3,0000.0,0010.97,0003.64,0002.07
2021-10-19 04:10:00,,0818.4,5.00,0.00,30.3,29.2,00.0,39.4,32.0,10.3,0000.0,0010.50,0003.59,0002.06
2021-10-19 04:11:00,,0818.4,5.01,0.00,30.3,29.2,00.0,39.4,32.0,10.3,0000.0,0008.99,0003.57,0002.05
2021-10-19 04:12:00,,0818.4,4.98,0.00,30.3,29.1,00.0,39.4,32.0,10.3,0000.0,0009.73,0003.56,0002.06
2021-10-19 04:13:00,,0818.4,5.01,0.00,30.3,29.2,00.0,39.4,32.0,10.3,0000.0,0010.00,0003.58,0002.07
2021-10-19 04:14:00,,0818.4,4.99,0.00,30.3,29.2,00.0,39.4,32.0,10.2,0000.0,0010.27,0003.59,0002.07
2021-10-19 04:15:00,,0818.3,5.00,0.00,30.3,29.1,00.0,39.4,32.0,10.2,0000.0,0011.12,0003.55,0002.10
2021-10-19 04:16:00,,0818.3,5.01,0.00,30.3,29.1,00.0,39.4,31.9,10.2,0000.0,0011.61,0003.50,0002.10
2021-10-19 04:17:00,,0818.3,4.99,0.00,30.3,29.1,00.0,39.4,31.9,10.2,0000.0,0011.99,0003.51,0002.10
2021-10-19 04:18:00,,0818.3,5.00,0.00,30.3,29.2,00.0,39.4,32.0,10.2,0000.0,0012.47,0003.50,0002.09
2021-10-19 04:19:00,,0818.2,5.00,0.00,30.3,29.2,00.0,39.4,32.0,10.2,0000.0,0012.64,0003.51,0002.10
2021-10-19 04:20:00,,0818.2,5.01,0.00,30.3,29.2,00.0,39.4,32.0,10.2,0000.0,0013.54,0003.54,0002.09
2021-10-19 04:21:00,,0818.2,4.99,0.00,30.3,29.2,00.0,39.4,31.9,10.2,0000.0,0014.18,0003.58,0002.10
2021-10-19 04:22:00,,0818.2,5.00,0.00,30.3,29.2,00.0,39.4,32.0,10.2,0000.0,0015.26,0003.60,0002.12
2021-10-19 04:23:00,,0818.2,5.00,0.00,30.3,28.7,00.0,39.4,31.9,10.2,0000.0,0014.78,0003.60,0002.11
2021-10-19 04:24:00,,0818.2,5.00,0.00,30.1,26.5,00.0,39.4,31.3,10.3,0000.0,0014.58,0003.63,0002.12
2021-10-19 04:25:00,,0818.2,5.00,0.00,30.0,26.0,00.0,39.3,31.1,10.4,0000.0,0014.18,0003.59,0002.12
2021-10-19 04:26:00,,0818.2,5.01,0.00,29.8,26.3,00.0,39.2,31.1,10.5,0000.0,0014.01,0003.68,0002.12
2021-10-19 04:27:00,,0818.2,5.00,0.00,29.8,26.7,00.0,39.2,31.2,10.5,0000.0,0013.57,0003.71,0002.12
2021-10-19 04:28:00,,0818.2,5.00,0.00,29.7,27.1,00.0,39.1,31.2,10.4,0000.0,0013.05,0003.69,0002.11
2021-10-19 04:29:00,,0818.2,5.00,0.00,29.7,27.4,00.0,39.1,31.2,10.4,0000.0,0012.87,0003.71,0002.12
2021-10-19 04:30:00,,0818.2,5.00,0.00,29.7,27.7,00.0,39.0,31.3,10.4,0000.0,0012.28,0003.69,0002.12
2021-10-19 04:31:00,,0818.2,4.99,0.00,29.7,27.9,00.0,39.0,31.3,10.4,0000.0,0012.15,0003.65,0002.12
2021-10-19 04:32:00,,0818.2,5.00,0.00,29.7,28.1,00.0,39.0,31.4,10.4,0000.0,0011.75,0003.63,0002.12
2021-10-19 04:33:00,,0818.2,5.00,0.00,29.7,28.2,00.0,39.0,31.4,10.5,0000.0,0010.51,0003.55,0002.11
2021-10-19 04:34:00,,0818.2,5.00,0.00,29.7,28.3,00.0,39.0,31.4,10.5,0000.0,0009.97,0003.51,0002.10
2021-10-19 04:35:00,,0818.2,5.01,0.00,29.7,28.4,00.0,39.0,31.4,10.5,0000.0,0009.96,0003.46,0002.08
2021-10-19 04:36:00,,0818.2,4.99,0.00,29.7,28.4,00.0,38.9,31.4,10.5,0000.0,0010.30,0003.42,0002.07
2021-10-19 04:37:00,,0818.2,5.00,0.00,29.7,28.4,00.0,38.9,31.4,10.5,0000.0,0010.13,0003.38,0002.06
2021-10-19 04:38:00,,0818.2,5.00,0.00,29.8,28.4,00.0,38.9,31.4,10.5,0000.0,0009.64,0003.33,0002.07
2021-10-19 04:39:00,,0818.2,4.99,0.00,29.8,28.5,00.0,38.9,31.4,10.5,0000.0,0009.94,0003.33,0002.09
2021-10-19 04:40:00,,0818.2,5.01,0.00,29.8,28.5,00.0,38.9,31.5,10.4,0000.0,0011.16,0003.31,0002.09
2021-10-19 04:41:00,,0818.2,5.00,0.00,29.8,28.6,00.0,38.9,31.5,10.5,0000.0,0011.79,0003.35,0002.10
2021-10-19 04:42:00,,0818.2,4.99,0.00,29.8,28.6,00.0,38.9,31.5,10.5,0000.0,0011.89,0003.42,0002.10
2021-10-19 04:43:00,,0818.1,5.00,0.00,29.8,28.6,00.0,38.9,31.5,10.4,0000.0,0011.27,0003.43,0002.10
2021-10-19 04:44:00,,0818.1,4.99,0.00,29.8,28.6,00.0,38.9,31.5,10.5,0000.0,0011.74,0003.44,0002.09
2021-10-19 04:45:00,,0818.1,5.00,0.00,29.8,28.6,00.0,38.9,31.5,10.5,0000.0,0012.25,0003.52,0002.11
2021-10-19 04:46:00,,0818.2,5.00,0.00,29.8,28.6,00.0,38.9,31.5,10.4,0000.0,0012.32,0003.58,0002.14
2021-10-19 04:47:00,,0818.2,5.00,0.00,29.8,28.6,00.0,38.9,31.5,10.4,0000.0,0012.47,0003.64,0002.16
2021-10-19 04:48:00,,0818.2,4.98,0.00,29.8,28.7,00.0,38.9,31.6,10.3,0000.0,0012.84,0003.65,0002.17
2021-10-19 04:49:00,,0818.2,5.01,0.00,29.8,28.7,00.0,38.9,31.6,10.3,0000.0,0012.71,0003.63,0002.17
2021-10-19 04:50:00,,0818.2,5.01,0.00,29.9,28.7,00.0,38.9,31.6,10.3,0000.0,0012.66,0003.59,0002.15
2021-10-19 04:51:00,,0818.2,4.99,0.00,29.9,28.7,00.0,39.0,31.6,10.3,0000.0,0011.10,0003.60,0002.15
2021-10-19 04:52:00,,0818.2,5.01,0.00,29.9,28.7,00.0,39.0,31.6,10.3,0000.0,0010.41,0003.61,0002.15
2021-10-19 04:53:00,,0818.2,4.99,0.00,29.9,28.8,00.0,39.0,31.6,10.3,0000.0,0009.86,0003.56,0002.15
2021-10-19 04:54:00,,0818.2,5.00,0.00,29.9,28.8,00.0,39.0,31.6,10.3,0000.0,0010.60,0003.56,0002.16
2021-10-19 04:55:00,,0818.2,4.99,0.00,29.9,28.8,00.0,39.0,31.6,10.3,0000.0,0010.87,0003.61,0002.19
2021-10-19 04:56:00,,0818.1,5.02,0.00,29.9,28.8,00.0,39.0,31.7,10.3,0000.0,0010.80,0003.58,0002.19
2021-10-19 04:57:00,,0818.0,4.99,0.00,29.9,28.8,00.0,39.0,31.7,10.3,0000.0,0011.59,0003.58,0002.17
2021-10-19 04:58:00,,0818.1,5.01,0.00,29.9,28.8,00.0,39.0,31.7,10.3,0000.0,0011.29,0003.58,0002.16
2021-10-19 04:59:00,,0818.0,4.99,0.00,29.9,28.8,00.0,39.0,31.6,10.3,0000.0,0010.84,0003.59,0002.16
